STARLINK-5684, 55453

Orbit data source: Space-Track

STARLINK-5684, 55453 is a payload satellite owned by SpaceX/Seattle (US) in LEO that was launched on Thu, 02 Feb 2023 UTC via an FALCON 9 launch vehicle from the Air Force Eastern Test Range (AFETR). Payload-class satellites include a variety of spacecraft equipped with specific instruments for various scientific and technological missions. These include communications satellites like Starlink; space stations such as the ISS; scientific satellites like the Hubble; Earth observation satellites from companies like Planet Labs, Umbra, and HawkEye 360; GPS; miniature CubeSats for education and research; and military/defense satellites.

Loading next visibility...
Identifier
55453, 2023-015E
Orbit
LEO
Country
Flag of USUS
Related business
Manufacturer
SpaceX/Seattle
Mission
Operational Commercial Communications
Bus & Motor
STARLINK, Unknown motor
Mass
305 kg wet, ~290 kg dry
Launch date (UTC)
2023-02-02 (3 years ago)
Launch vehicle
FALCON 9
Launch site
Air Force Eastern Test Range (AFETR)
Object type
Payload
Rocket body
Debris
Shape & HBR
Box + 1 Pan, 10.1 m
Radar Cross Section
13.562 m², Large (>1 m²)

Expand to show TLE details & history
Last TLE update: 12 hours ago

TLE from 12 hours ago
0 STARLINK-5684
1 55453U 23015E   26035.60387879  .00000232  00000-0  32218-4 0  9994
2 55453  43.0035 146.0607 0001400 272.1971  87.8711 15.02534464165779
Epoch: 2026-02-04T14:29Z
TLE epoch observation values (Epoch: 2026-02-04T14:29:35.127Z)
Latitude
-0.00002°
Longitude
153.89624°
Altitude
558.827 km
Speed
7.584 km/s
True Right ascension
09h 44m 14s
True Declination
0° 00' 00"
Sunlit
Object was in full shadow at epoch
Visualization orbit readout
Latitude
Unknown
Longitude
Unknown
Altitude
Unknown
Speed
Unknown
Apparent Right ascension
Unknown
Apparent Declination
Unknown
Sunlit
N/A
Visualization observer readout
Local Sidereal Time
04:39:32
Azimuth
Unknown
Elevation
Unknown
Doppler factor
Unknown
Orbital elements
Apogee altitude
561.979 km
Perigee altitude
560.036 km
Semi-major axis
6,939.145 km
Eccentricity
0.00014
Inclination
43.0035°
RAAN
146.0607°
Arg. of periapsis
272.1971°
True anomaly
87.88713°
Mean anomaly
87.8711°
Eccentric anomaly
87.87912°
Mean motion
3.75478 °/min
Orbital period
95.88 mins
BSTAR
0.000032218
Loading maneuver chart data...
Computing Atmospheric mass density...
Loading historical data...
Loading historical data...
Loading historical data...
Loading historical data...
Loading historical data...
Loading historical data...
Loading historical data...

Documentation

Showing up to 5 results
|